Vertical_Velocity
-3 -3 -3 -3 -3 -3 -3 -4 -4 -3 -2 -1 -2 -3 -3 -2 -1 -1 -1 -0 1 1 1 2 2 1 1 1 1 1 1 0 1 1 1 2 1 1 1 1 1 1 2 1 1 1 1 0 0 -1 -1 -2 -2 -3 -3 -3 -2 -2 -2 -2 -2 -2 -3 -2 -4 -5 -5 -5 -5
-4 -4 -4 -4 -4 -4 -4 -4 -4 -3 -2 -1 -1 -3 -4 -3 -2 -2 -2 -2 -1 -0 0 1 1 1 1 1 1 1 1 0 1 1 1 2 2 2 2 2 2 2 2 2 1 1 1 0 -0 -1 -2 -3 -2 -2 -3 -4 -2 -1 -1 -2 -3 -3 -3 -3 -5 -5 -5 -5 -6
-3 -4 -4 -4 -5 -6 -5 -5 -4 -3 -1 -0 -1 -2 -3 -3 -2 -2 -2 -3 -3 -2 -1 -0 -1 -0 0 -0 -0 -0 0 -0 0 1 1 2 2 2 2 2 2 2 2 2 2 1 1 0 -0 -1 -1 -2 -1 -1 -2 -3 -2 -0 -0 -3 -4 -4 -3 -4 -5 -5 -5 -5 -5
-2 -2 -2 -2 -4 -4 -5 -4 -3 -2 -1 -0 -1 -2 -2 -2 -2 -2 -2 -3 -2 -2 -1 -1 -1 -1 -1 -1 -1 -0 -0 0 1 1 1 1 1 1 1 1 1 1 1 1 1 1 1 1 0 -0 -1 -1 -0 -0 -1 -2 -1 -1 -1 -3 -4 -3 -4 -4 -5 -5 -4 -4 -4
-1 -2 -2 -2 -2 -3 -4 -4 -1 -0 -0 -0 -0 -1 -1 -2 -2 -2 -2 -2 -2 -1 -1 -1 -0 -1 -1 0 0 -0 0 1 1 1 1 1 1 1 1 2 1 1 0 0 1 0 0 0 0 -0 0 1 1 1 -0 -1 -0 -1 -2 -3 -3 -3 -4 -4 -5 -4 -4 -4 -4
-0 -2 -4 -4 -4 -4 -4 -3 -1 0 0 1 1 0 -1 -2 -1 -1 -1 -1 -1 -1 -1 -0 0 -0 0 1 1 1 1 1 1 2 2 1 1 1 1 1 1 0 -0 -0 -0 -1 -1 -0 -0 -0 0 1 1 -0 -1 -1 -1 -1 -2 -2 -3 -3 -3 -3 -4 -4 -3 -3 -3
1 -2 -5 -7 -6 -5 -3 -2 -1 0 1 2 2 1 -0 -1 -0 -0 -0 -1 -1 -0 -0 0 0 0 0 1 1 1 1 1 1 1 1 1 1 1 1 0 -0 -0 -0 -1 -1 -1 -1 -1 0 -0 -0 0 0 -1 -2 -2 -1 -1 -2 -2 -3 -3 -2 -3 -4 -4 -3 -3 -2
0 -2 -5 -7 -7 -5 -2 -1 -0 1 1 1 2 2 1 1 1 0 -0 -0 0 0 -0 0 0 0 0 1 1 1 1 1 1 1 0 0 -0 -0 -0 -1 -0 -1 -1 -1 -1 -1 -1 -1 0 0 -0 -0 -0 -1 -2 -2 -2 -1 -2 -2 -3 -3 -2 -2 -3 -3 -2 -2 -2
1 -2 -4 -6 -6 -5 -3 -1 -0 0 0 0 1 2 2 2 1 1 1 1 0 -0 -0 0 0 0 0 1 1 1 1 1 1 0 -0 -0 -1 -1 -1 -1 -0 -1 -1 -1 -1 -1 -0 -0 0 0 -0 -0 -0 -1 -2 -1 -1 -1 -2 -2 -2 -2 -2 -2 -2 -2 -2 -2 -2
1 -1 -3 -4 -5 -5 -4 -2 -2 -1 -1 -1 -1 1 2 2 2 2 1 0 -0 -0 0 0 0 0 1 0 1 1 1 1 1 -0 -0 -1 -1 -1 -1 -1 -0 -0 -1 -1 -0 -0 -0 0 0 -0 -0 -0 0 -0 -1 -0 0 -0 -1 -2 -1 -1 -1 -1 -1 -1 -2 -2 -1
1 -0 -1 -2 -4 -4 -4 -3 -4 -3 -2 -2 -1 -0 1 2 2 1 1 0 1 0 0 -0 1 1 1 1 1 1 1 1 0 0 -0 -0 -0 -1 -1 -1 -1 -0 -0 -0 -0 -0 -0 -0 -0 -0 -0 -0 0 0 -0 -0 0 -0 -1 -2 -1 -0 -0 -1 -0 -1 -1 -2 -1
1 0 -0 -1 -3 -4 -4 -4 -4 -3 -2 -2 -2 -1 0 1 1 1 1 1 1 0 -0 0 1 2 1 1 2 2 1 1 1 0 0 0 -0 -0 -1 -1 -1 -1 -1 -1 -1 -1 -0 -0 -0 0 0 0 1 1 1 -0 0 -0 -0 -1 -1 -0 -0 -0 0 -0 -0 -1 -0
-0 -0 -0 -1 -2 -3 -4 -4 -3 -2 -2 -1 -1 -1 -0 1 1 1 1 1 0 -0 -0 1 1 2 2 2 2 2 2 1 1 1 0 0 -0 -0 -0 -1 -1 -1 -1 -2 -1 -1 -0 -0 0 1 2 2 2 2 1 1 0 0 -0 -1 -1 -0 -0 -0 0 0 -0 -0 0
-0 -0 -0 -0 -1 -2 -3 -3 -3 -2 -1 -1 -1 -1 -0 0 0 0 0 0 -0 -0 0 1 1 1 2 2 2 2 1 1 1 1 0 -0 -0 -0 -1 -1 -2 -2 -2 -2 -2 -1 -0 -0 1 2 3 3 3 3 2 2 1 1 0 -0 -0 -1 -1 -0 -0 -0 0 0 0
0 -0 -1 -0 -0 -1 -2 -2 -2 -2 -1 -1 -2 -1 -0 0 -0 0 0 0 -0 -0 1 1 1 1 1 2 2 2 1 1 0 0 -0 -0 -0 -1 -1 -2 -2 -2 -1 -1 -1 -1 -0 -0 1 2 2 3 3 2 2 2 1 1 0 -0 -1 -1 -1 -1 -1 -0 -0 -0 1
-0 -1 -1 -0 -0 -1 -2 -2 -2 -1 -1 -1 -1 -1 0 1 0 1 1 1 0 1 1 2 2 1 2 2 2 2 1 0 -0 -0 -0 -0 -1 -1 -1 -2 -2 -1 -1 -1 -1 -1 -0 -0 1 1 1 2 2 2 2 2 2 1 0 -0 -1 -1 -1 -1 -1 -0 -0 -0 1
-1 -2 -2 -1 -1 -1 -2 -2 -1 -1 -1 -1 -1 -1 0 1 1 1 2 2 2 2 2 2 2 2 2 2 2 2 1 0 -0 -0 -0 -1 -1 -1 -1 -1 -1 -1 -1 -0 -0 -0 -0 -0 0 0 1 1 1 1 1 2 2 1 1 -0 -0 -0 -0 -1 -0 0 0 0 1
-1 -2 -2 -1 -1 -2 -2 -2 -1 -1 -1 -2 -2 -2 -1 -0 0 1 1 2 3 3 2 2 2 3 3 2 1 1 1 1 -0 -1 -1 -1 -1 -1 -1 -1 -2 -1 -0 -0 -0 -0 -0 -0 -0 -0 0 0 0 1 1 2 1 1 1 1 0 0 0 0 0 1 1 1 0
-1 -1 -1 -2 -2 -3 -3 -3 -2 -2 -2 -2 -2 -3 -3 -2 -1 -0 0 1 2 2 2 1 1 1 2 1 1 1 1 1 -0 -1 -1 -1 -0 -0 -1 -2 -1 -1 -0 0 1 1 1 0 -0 -0 0 0 0 0 1 1 1 1 1 1 1 1 1 1 1 1 1 1 -0
-0 -1 -2 -2 -3 -4 -4 -4 -3 -2 -2 -2 -2 -3 -3 -3 -2 -1 0 0 1 1 2 1 1 0 1 1 0 0 0 0 0 -0 -1 -1 -0 -0 -1 -1 -1 -0 -0 1 2 2 2 0 -0 -0 0 1 0 0 1 1 1 1 1 1 1 1 1 1 1 1 0 0 -0
-0 -1 -2 -3 -4 -5 -5 -5 -3 -2 -2 -2 -2 -3 -3 -4 -2 -1 1 1 1 1 1 1 1 0 0 0 0 -0 -1 -0 0 0 -0 -1 -0 -0 -1 -0 -0 -0 0 1 2 3 2 0 -0 0 1 1 1 1 1 1 0 0 0 0 0 0 0 -0 0 0 -0 -0 -1
-1 -2 -3 -4 -5 -6 -6 -5 -3 -2 -2 -2 -2 -3 -3 -3 -2 -0 1 2 2 2 1 1 1 1 1 0 0 -0 -1 -1 0 0 0 -0 -0 -1 -0 0 1 1 1 1 3 3 2 2 1 1 1 0 0 1 1 1 -0 -1 -1 -1 -1 -1 -1 -1 -1 -1 -1 -1 -1
-0 -2 -3 -5 -6 -6 -5 -4 -3 -2 -2 -2 -3 -3 -3 -3 -2 -1 1 3 3 2 1 1 1 1 1 0 0 -0 -0 -0 -0 -0 0 0 -0 -0 -0 1 1 1 1 1 2 3 4 4 3 1 -0 -1 -1 -0 1 0 -1 -2 -2 -2 -2 -2 -1 -1 -1 -1 -1 -1 -1
0 -1 -3 -5 -6 -6 -5 -4 -2 -2 -2 -2 -3 -3 -3 -3 -3 -1 1 3 3 2 1 1 1 1 1 0 0 0 -0 -0 -1 -1 -0 0 1 1 1 1 2 1 1 1 2 4 4 4 3 1 -1 -2 -1 -1 -1 -1 -2 -2 -2 -2 -2 -2 -2 -1 -1 -1 -1 -1 -1
1 -1 -4 -5 -6 -5 -4 -2 -2 -1 -2 -2 -2 -3 -3 -3 -2 -0 1 3 2 2 1 1 1 1 1 1 0 0 0 -0 -1 -1 -1 -0 1 1 2 2 2 1 1 1 2 3 3 3 1 -0 -1 -2 -2 -2 -2 -2 -1 -2 -2 -2 -2 -2 -1 -1 -1 -0 -0 -1 -1
-0 -2 -4 -5 -5 -4 -3 -1 -0 -0 -1 -1 -2 -2 -2 -3 -2 -0 1 2 1 1 1 1 1 1 1 1 1 0 -0 -0 -1 -1 -0 0 1 2 2 2 2 1 1 0 1 1 2 2 1 -1 -2 -2 -3 -3 -2 -2 -2 -1 -1 -2 -2 -1 -1 -0 -0 -0 -0 -0 -1
-1 -2 -4 -5 -4 -3 -2 -0 1 1 0 -1 -1 -1 -2 -2 -1 1 2 2 1 0 0 1 1 1 1 1 1 1 -0 -1 -1 -1 -0 1 1 2 2 2 1 1 0 -0 -0 1 2 3 1 -0 -1 -2 -3 -3 -3 -3 -2 -2 -1 -2 -2 -1 -0 0 0 0 0 -0 -1
-1 -2 -3 -3 -3 -3 -1 1 3 2 1 0 -0 -1 -2 -1 -0 1 2 2 0 -0 -0 0 1 1 1 1 1 1 1 -0 -1 -1 -0 0 1 1 2 2 1 1 -0 -0 -0 1 2 3 2 1 -0 -1 -2 -3 -3 -3 -3 -2 -2 -2 -1 -1 -1 0 0 1 1 0 -0
-1 -2 -2 -2 -2 -1 -0 2 3 2 1 0 -0 -1 -1 -1 -0 1 1 1 0 -0 -1 -1 -0 0 1 1 1 1 1 1 -0 -1 -1 -1 -0 1 2 2 2 0 -1 -1 0 1 2 2 2 1 0 -0 -1 -2 -3 -3 -3 -3 -2 -2 -1 -1 -0 -0 0 1 1 0 -0
-1 -1 -1 -0 -0 0 1 2 2 2 1 -0 -1 -1 -1 -1 -0 0 1 1 0 -0 -1 -2 -1 -0 -0 -0 -0 1 2 2 0 -0 -0 -0 -0 0 1 2 1 0 -1 -1 0 2 3 3 3 2 1 -0 -0 -1 -2 -2 -3 -3 -2 -2 -1 -1 -0 -0 0 1 1 0 0
-1 -0 1 1 2 1 1 1 1 1 0 -0 -1 -1 -1 -1 -0 0 1 1 0 -1 -2 -1 -0 -0 -0 -0 0 1 1 1 1 -0 -0 -0 -0 0 0 1 1 -0 -1 -1 -1 0 2 4 4 3 2 1 -0 -1 -1 -2 -2 -2 -2 -1 -1 -0 -0 0 1 1 1 1 0
0 1 2 3 2 1 1 1 1 0 -0 -0 -1 -1 -2 -1 -0 0 1 1 0 -0 -1 -1 -0 -0 -0 -0 1 1 1 1 1 -0 -1 -0 -0 -0 -0 0 0 -0 -1 -1 -2 -2 -1 2 4 4 3 1 0 -0 -1 -1 -1 -1 -1 -0 -0 0 0 1 1 1 1 1 1
3 3 4 3 2 1 0 1 1 0 -0 -0 -0 -1 -2 -2 -1 -0 1 1 1 1 -0 -1 -0 -0 -0 -0 -0 0 1 1 1 -0 -1 -1 -1 -1 -0 -0 -0 -0 0 1 -2 -4 -4 -1 2 4 3 1 -0 -1 -1 -0 -0 0 0 1 0 1 1 1 1 1 1 1 1
4 4 4 3 2 1 0 0 0 0 1 1 0 -0 -1 -2 -2 -1 -0 1 1 1 1 0 0 0 -0 -0 -0 -0 0 0 0 -0 -1 -1 -1 -1 -1 -1 -1 -0 1 1 -1 -3 -5 -4 0 3 4 2 0 -1 -1 -0 0 1 1 1 1 1 1 1 1 1 1 1 1
4 3 2 1 1 1 0 0 0 0 1 1 1 -0 -1 -1 -1 -1 -0 1 1 1 0 -0 0 1 1 0 0 0 0 -0 -0 -0 -1 -1 -1 -1 -0 -1 -1 -0 1 2 0 -3 -5 -6 -2 2 5 4 1 0 -0 0 1 1 2 2 1 1 1 1 1 1 1 1 1
2 1 1 -0 -0 0 0 0 -0 -0 0 1 1 0 -1 -1 -1 -1 0 2 2 1 0 -1 -1 -0 0 0 0 1 1 1 0 -0 -1 -1 -0 -0 -0 -1 -0 0 1 2 1 -2 -4 -6 -3 1 5 5 2 1 -0 1 1 2 2 2 2 1 1 1 1 1 1 1 1
0 -0 -1 -1 -1 -0 0 0 -0 -0 -0 0 0 -0 -1 -1 -2 -2 -1 2 3 2 1 -1 -1 -1 -0 -0 -0 -0 -0 0 1 0 -0 -1 -0 -0 -0 -0 -0 0 1 1 1 -1 -3 -5 -3 1 4 6 3 1 -0 1 2 2 3 3 2 1 1 1 1 1 1 1 0
-1 -1 -1 -2 -1 -1 -0 -0 -0 -0 -0 0 0 -0 -1 -2 -2 -3 -2 -0 2 2 1 -0 -0 -0 -0 -0 -0 -1 -1 -1 -0 -0 -0 -1 -1 -0 0 0 -0 0 0 1 1 0 -1 -3 -3 0 4 7 4 1 -0 0 2 3 3 3 2 1 1 1 1 0 0 -0 -0
-1 -1 -1 -1 -1 -1 -0 -0 -0 -1 -0 0 0 -0 -2 -2 -3 -3 -3 -2 -0 0 0 -0 -0 -0 0 1 1 0 -1 -2 -1 -0 -0 -0 -1 -0 1 1 -0 -0 -0 1 1 0 -0 -2 -2 -0 3 7 5 3 1 0 1 3 4 4 3 2 1 0 1 0 -0 -1 -1
-1 -1 -1 -1 -1 -0 -0 0 -1 -1 -1 -0 1 -0 -1 -3 -3 -3 -2 -2 -2 -1 -0 0 -0 -1 -0 1 2 1 0 -1 -1 -0 0 0 -0 -0 1 1 0 -0 -0 0 1 1 -0 -1 -2 -1 1 4 5 4 2 1 1 2 3 4 4 3 2 1 0 0 -0 -1 -1
-2 -2 -2 -1 -1 -0 0 0 -1 -2 -2 -1 0 0 -0 -2 -3 -3 -2 -2 -2 -1 -1 0 -0 -1 -0 1 2 2 2 1 -0 -0 0 1 0 0 0 1 0 -0 -1 -0 0 1 0 -0 -0 -1 -0 1 3 4 3 1 1 2 3 3 4 4 4 2 1 1 0 -0 -1
Height
3022 3022 3022 3022 3022 3021 3021 3021 3021 3020 3020 3020 3019 3019 3018 3018 3017 3016 3016 3015 3014 3014 3013 3012 3012 3011 3011 3010 3010 3009 3009 3009 3009 3009 3009 3009 3008 3008 3008 3008 3008 3008 3007 3007 3007 3007 3007 3007 3007 3007 3007 3007 3007 3007 3007 3007 3007 3007 3007 3007 3007 3007 3006 3006 3006 3006 3006 3006 3006
3021 3021 3021 3020 3020 3019 3019 3019 3019 3018 3018 3017 3017 3017 3016 3015 3014 3014 3013 3013 3012 3011 3011 3010 3009 3009 3008 3007 3007 3007 3007 3007 3006 3006 3006 3006 3006 3006 3005 3005 3005 3005 3005 3005 3005 3005 3005 3005 3005 3005 3005 3005 3005 3005 3005 3005 3005 3004 3004 3004 3004 3004 3004 3004 3004 3004 3003 3003 3003
3019 3019 3019 3018 3018 3018 3017 3017 3017 3016 3016 3015 3015 3015 3014 3013 3012 3012 3011 3010 3010 3009 3008 3007 3007 3006 3005 3005 3004 3004 3004 3003 3003 3003 3003 3003 3003 3002 3002 3002 3002 3002 3002 3002 3002 3002 3002 3002 3002 3002 3002 3002 3002 3002 3002 3002 3002 3002 3002 3002 3002 3002 3001 3001 3001 3001 3001 3001 3001
3017 3016 3016 3016 3016 3016 3015 3015 3015 3014 3014 3013 3013 3012 3012 3011 3010 3009 3008 3008 3007 3006 3006 3005 3004 3003 3003 3002 3002 3001 3001 3000 3000 3000 3000 2999 2999 2999 2999 2999 2999 2999 2999 2999 3000 3000 3000 3000 3000 3000 3000 3000 3000 3000 3000 3000 3000 2999 2999 2999 2999 2999 2999 2998 2998 2998 2998 2998 2998
3014 3013 3013 3013 3013 3013 3013 3013 3012 3012 3012 3011 3011 3010 3009 3009 3008 3007 3006 3005 3005 3004 3003 3002 3002 3001 3000 2999 2999 2998 2997 2997 2997 2997 2997 2997 2997 2997 2997 2997 2997 2997 2997 2997 2997 2997 2997 2997 2997 2997 2997 2997 2997 2997 2997 2997 2997 2997 2997 2997 2997 2996 2996 2996 2996 2996 2996 2996 2996
3012 3011 3011 3011 3011 3011 3011 3011 3010 3010 3009 3009 3008 3007 3007 3006 3005 3004 3003 3003 3002 3001 3000 3000 2999 2998 2997 2997 2996 2996 2995 2995 2994 2994 2994 2994 2994 2994 2994 2994 2994 2994 2994 2994 2994 2994 2995 2995 2995 2995 2995 2995 2995 2995 2995 2995 2995 2994 2994 2994 2994 2993 2993 2993 2993 2993 2993 2993 2993
3010 3009 3009 3009 3009 3009 3009 3008 3008 3008 3007 3007 3006 3005 3004 3003 3003 3002 3001 3000 2999 2998 2998 2997 2996 2996 2995 2994 2994 2993 2992 2992 2992 2992 2992 2992 2992 2992 2992 2992 2992 2992 2992 2992 2992 2992 2992 2992 2992 2992 2992 2992 2992 2992 2992 2992 2992 2992 2991 2991 2991 2991 2991 2991 2991 2991 2991 2991 2991
3008 3007 3007 3007 3007 3007 3007 3006 3006 3005 3005 3004 3004 3003 3002 3001 3000 2999 2998 2997 2997 2996 2995 2994 2994 2993 2992 2992 2991 2991 2990 2990 2989 2989 2989 2989 2989 2989 2989 2989 2989 2990 2990 2990 2990 2990 2990 2990 2990 2990 2990 2990 2990 2989 2989 2989 2988 2988 2988 2988 2988 2988 2988 2988 2988 2988 2988 2988 2988
3006 3005 3005 3005 3004 3004 3004 3004 3003 3003 3002 3002 3001 3001 3000 2999 2998 2997 2996 2995 2994 2993 2992 2992 2991 2990 2990 2989 2989 2988 2988 2987 2987 2987 2987 2987 2987 2987 2987 2987 2987 2987 2987 2987 2987 2987 2987 2987 2987 2987 2987 2987 2987 2986 2986 2986 2985 2985 2985 2985 2986 2986 2986 2986 2986 2986 2986 2986 2986
3003 3003 3002 3002 3002 3002 3001 3001 3001 3000 3000 2999 2999 2998 2997 2997 2996 2994 2994 2993 2992 2991 2990 2989 2989 2988 2987 2987 2986 2986 2986 2985 2985 2985 2985 2985 2985 2985 2985 2985 2985 2985 2985 2985 2985 2985 2985 2985 2985 2985 2984 2984 2984 2983 2983 2983 2983 2982 2982 2982 2983 2983 2983 2983 2983 2983 2983 2983 2983
3001 3000 3000 3000 2999 2999 2999 2998 2998 2998 2997 2997 2996 2996 2995 2994 2993 2992 2991 2990 2989 2988 2987 2987 2986 2986 2985 2984 2984 2983 2983 2983 2983 2982 2982 2982 2982 2982 2982 2982 2982 2982 2982 2982 2982 2982 2982 2982 2982 2981 2981 2981 2981 2980 2980 2980 2980 2980 2980 2980 2980 2980 2981 2981 2981 2981 2981 2981 2981
2998 2998 2997 2997 2997 2997 2996 2996 2996 2995 2995 2994 2994 2993 2992 2991 2990 2989 2988 2987 2987 2986 2985 2984 2983 2983 2982 2982 2981 2981 2981 2980 2980 2980 2980 2980 2980 2980 2980 2980 2979 2979 2979 2979 2979 2979 2979 2979 2978 2978 2978 2978 2977 2977 2977 2977 2977 2977 2977 2977 2977 2977 2978 2978 2978 2978 2978 2978 2978
2995 2995 2995 2994 2994 2994 2994 2993 2993 2993 2992 2992 2991 2991 2990 2989 2988 2987 2986 2985 2984 2983 2982 2981 2981 2980 2979 2979 2978 2978 2978 2978 2978 2977 2977 2977 2977 2977 2977 2977 2977 2976 2976 2976 2976 2976 2976 2976 2975 2975 2975 2975 2975 2975 2974 2974 2974 2974 2974 2974 2975 2975 2975 2976 2976 2976 2975 2975 2975
2992 2992 2992 2992 2992 2992 2991 2991 2991 2990 2990 2989 2988 2988 2987 2986 2985 2984 2983 2982 2981 2980 2980 2979 2978 2977 2977 2977 2976 2976 2976 2975 2975 2975 2975 2975 2974 2974 2974 2974 2973 2973 2973 2973 2973 2972 2972 2972 2972 2972 2972 2972 2972 2972 2972 2972 2972 2972 2972 2972 2972 2972 2972 2973 2973 2972 2972 2972 2972
2989 2989 2989 2990 2990 2989 2989 2988 2988 2988 2987 2987 2986 2985 2984 2983 2982 2982 2981 2980 2979 2978 2977 2976 2976 2975 2974 2974 2973 2973 2973 2972 2972 2972 2972 2972 2972 2971 2971 2971 2970 2970 2970 2970 2970 2969 2969 2969 2969 2969 2969 2969 2969 2969 2969 2969 2969 2969 2969 2969 2970 2970 2970 2970 2970 2970 2969 2969 2969
2986 2986 2987 2987 2987 2987 2987 2986 2986 2985 2985 2984 2983 2983 2982 2981 2980 2979 2978 2977 2976 2975 2974 2974 2973 2972 2972 2971 2971 2970 2970 2970 2969 2969 2969 2968 2968 2968 2967 2967 2967 2967 2967 2967 2967 2966 2966 2966 2966 2966 2966 2966 2967 2967 2967 2967 2967 2967 2967 2967 2967 2967 2967 2967 2967 2966 2966 2966 2966
2984 2984 2984 2985 2985 2984 2984 2983 2983 2983 2982 2982 2981 2981 2980 2979 2978 2977 2976 2975 2974 2973 2972 2971 2970 2969 2969 2968 2968 2967 2967 2967 2966 2966 2966 2965 2965 2965 2964 2964 2964 2964 2964 2963 2963 2963 2963 2963 2963 2963 2963 2964 2964 2964 2964 2965 2965 2964 2964 2964 2964 2964 2963 2963 2963 2963 2963 2963 2962
2981 2982 2982 2982 2982 2982 2981 2981 2980 2980 2980 2979 2979 2978 2977 2976 2975 2974 2973 2972 2972 2970 2969 2968 2967 2967 2966 2966 2965 2965 2964 2964 2963 2963 2962 2962 2962 2962 2961 2961 2961 2961 2961 2960 2960 2960 2960 2960 2960 2960 2961 2961 2962 2962 2962 2962 2962 2962 2962 2961 2961 2961 2960 2960 2960 2960 2959 2959 2959
2979 2979 2979 2979 2979 2979 2978 2978 2977 2977 2977 2977 2976 2975 2974 2973 2973 2972 2971 2970 2969 2968 2967 2966 2965 2964 2964 2963 2962 2962 2961 2961 2960 2960 2959 2959 2959 2958 2958 2957 2957 2957 2957 2957 2957 2957 2957 2957 2957 2958 2958 2959 2959 2959 2960 2959 2959 2959 2958 2958 2958 2957 2957 2957 2957 2956 2956 2956 2956
2977 2977 2977 2977 2976 2976 2976 2975 2975 2975 2975 2974 2973 2972 2972 2971 2970 2969 2968 2967 2967 2966 2965 2964 2963 2962 2961 2960 2960 2959 2958 2958 2957 2957 2956 2956 2956 2955 2955 2954 2954 2954 2954 2954 2955 2955 2955 2955 2955 2955 2956 2957 2957 2957 2957 2957 2956 2956 2955 2955 2954 2954 2954 2953 2953 2952 2952 2952 2952
2973 2973 2974 2974 2973 2973 2973 2972 2972 2972 2972 2972 2971 2970 2969 2968 2967 2967 2966 2965 2964 2963 2962 2961 2960 2959 2958 2957 2957 2956 2955 2955 2954 2954 2953 2953 2952 2952 2952 2952 2952 2952 2952 2952 2952 2952 2952 2952 2952 2953 2954 2954 2954 2954 2954 2953 2953 2952 2951 2951 2951 2950 2950 2950 2949 2949 2949 2949 2949
2971 2971 2971 2971 2971 2971 2970 2970 2970 2970 2970 2969 2968 2967 2967 2966 2965 2964 2963 2962 2962 2960 2959 2958 2957 2956 2955 2954 2954 2953 2952 2952 2951 2951 2950 2950 2949 2949 2949 2949 2949 2949 2949 2949 2949 2950 2950 2950 2950 2951 2951 2951 2951 2951 2951 2950 2949 2948 2948 2947 2947 2947 2946 2946 2946 2946 2946 2946 2946
2968 2968 2969 2969 2968 2968 2968 2968 2968 2967 2967 2967 2966 2965 2964 2963 2962 2961 2961 2960 2959 2957 2956 2955 2954 2953 2952 2952 2951 2950 2949 2949 2948 2947 2947 2947 2947 2946 2947 2947 2946 2946 2946 2946 2946 2947 2947 2947 2948 2947 2947 2947 2947 2947 2947 2947 2946 2945 2944 2944 2943 2943 2943 2942 2942 2942 2942 2942 2943
2966 2966 2966 2967 2967 2966 2966 2966 2965 2965 2964 2963 2962 2962 2961 2960 2959 2958 2957 2957 2956 2954 2953 2952 2951 2950 2949 2949 2948 2947 2947 2946 2945 2945 2944 2944 2944 2944 2944 2944 2944 2943 2943 2943 2944 2944 2945 2945 2945 2944 2944 2944 2944 2944 2943 2943 2942 2942 2941 2940 2940 2940 2939 2939 2939 2939 2939 2939 2939
2964 2964 2964 2965 2964 2964 2964 2963 2963 2962 2961 2961 2960 2959 2958 2957 2956 2955 2955 2954 2952 2952 2950 2949 2948 2948 2947 2946 2945 2945 2944 2943 2942 2942 2942 2942 2942 2942 2942 2941 2941 2941 2941 2941 2941 2942 2942 2942 2942 2941 2941 2941 2941 2940 2940 2939 2939 2938 2937 2937 2937 2936 2936 2936 2936 2936 2936 2936 2936
2962 2962 2962 2962 2962 2962 2961 2961 2960 2959 2958 2957 2957 2956 2955 2954 2953 2952 2952 2951 2950 2948 2947 2947 2946 2945 2944 2943 2943 2942 2941 2941 2940 2940 2939 2939 2939 2939 2938 2938 2938 2938 2938 2938 2938 2938 2939 2939 2939 2938 2938 2937 2937 2937 2937 2936 2936 2935 2934 2934 2933 2933 2933 2933 2933 2933 2933 2933 2933
2960 2960 2960 2960 2960 2959 2959 2958 2958 2957 2956 2955 2953 2952 2952 2951 2950 2949 2949 2948 2947 2946 2945 2944 2943 2942 2942 2941 2940 2940 2939 2938 2938 2937 2937 2937 2937 2936 2936 2936 2936 2936 2935 2935 2935 2936 2936 2936 2936 2936 2935 2934 2934 2933 2933 2932 2932 2932 2931 2931 2930 2930 2930 2930 2930 2930 2930 2930 2930
2958 2958 2958 2958 2957 2957 2956 2956 2955 2954 2953 2952 2951 2950 2949 2948 2947 2947 2946 2945 2944 2942 2942 2941 2940 2940 2939 2938 2938 2937 2937 2936 2935 2935 2934 2934 2934 2934 2934 2933 2933 2933 2933 2932 2932 2933 2933 2933 2933 2933 2932 2932 2931 2930 2930 2929 2929 2929 2928 2928 2927 2927 2927 2927 2927 2927 2927 2927 2927
2956 2956 2956 2956 2955 2954 2953 2953 2952 2951 2950 2949 2948 2947 2946 2945 2944 2943 2943 2942 2941 2940 2939 2938 2937 2937 2937 2936 2935 2935 2934 2933 2933 2932 2932 2931 2931 2931 2931 2931 2931 2930 2930 2930 2930 2930 2930 2930 2930 2930 2929 2929 2928 2927 2927 2927 2926 2926 2925 2925 2925 2925 2924 2924 2924 2924 2925 2925 2925
2954 2954 2954 2953 2953 2952 2951 2950 2949 2948 2947 2946 2945 2944 2943 2942 2942 2941 2940 2939 2938 2937 2936 2936 2935 2934 2934 2933 2933 2932 2932 2931 2930 2929 2929 2929 2929 2928 2928 2928 2928 2927 2927 2927 2927 2927 2928 2928 2927 2927 2927 2926 2925 2925 2924 2924 2923 2923 2923 2922 2922 2922 2922 2922 2922 2922 2922 2922 2922
2952 2952 2952 2951 2950 2949 2948 2947 2946 2945 2944 2943 2942 2941 2940 2939 2938 2938 2937 2936 2935 2934 2933 2933 2932 2932 2931 2931 2930 2930 2929 2928 2927 2927 2926 2926 2926 2926 2926 2926 2925 2925 2925 2924 2924 2924 2925 2925 2925 2925 2924 2924 2923 2922 2922 2921 2921 2920 2920 2920 2920 2919 2919 2919 2919 2919 2919 2919 2919
2951 2950 2950 2949 2948 2947 2945 2944 2943 2942 2942 2940 2939 2938 2937 2936 2936 2935 2934 2934 2933 2932 2931 2930 2930 2929 2928 2928 2927 2927 2927 2926 2925 2924 2924 2923 2923 2923 2923 2922 2922 2922 2922 2922 2921 2921 2921 2922 2922 2922 2922 2921 2920 2920 2919 2918 2918 2918 2917 2917 2917 2917 2917 2917 2917 2917 2917 2917 2917
2948 2948 2947 2946 2945 2944 2943 2942 2941 2940 2939 2938 2937 2936 2934 2933 2933 2932 2932 2931 2930 2930 2929 2928 2927 2927 2926 2925 2925 2924 2924 2923 2923 2922 2921 2921 2921 2920 2920 2920 2920 2919 2919 2919 2919 2918 2917 2918 2919 2919 2919 2919 2918 2917 2917 2916 2916 2915 2915 2915 2915 2915 2915 2915 2914 2914 2914 2914 2914
2946 2945 2944 2943 2942 2941 2940 2939 2938 2937 2937 2936 2934 2933 2932 2931 2930 2929 2929 2928 2928 2927 2927 2926 2925 2924 2924 2923 2922 2922 2922 2921 2921 2920 2919 2918 2918 2918 2918 2917 2917 2917 2917 2916 2916 2915 2915 2915 2915 2916 2917 2916 2915 2915 2914 2913 2913 2913 2913 2913 2913 2912 2912 2912 2912 2912 2912 2912 2912
2942 2942 2941 2941 2940 2939 2938 2937 2936 2935 2934 2933 2932 2931 2930 2928 2927 2927 2926 2926 2926 2925 2924 2924 2923 2922 2922 2921 2920 2920 2919 2919 2918 2918 2917 2916 2916 2916 2915 2915 2915 2914 2914 2914 2913 2912 2912 2912 2912 2913 2914 2914 2913 2912 2912 2911 2911 2911 2911 2911 2910 2910 2910 2910 2909 2909 2909 2909 2909
2940 2939 2938 2938 2937 2936 2935 2934 2933 2932 2932 2931 2930 2929 2927 2926 2925 2924 2924 2924 2924 2923 2922 2922 2921 2920 2919 2918 2918 2917 2917 2917 2916 2916 2915 2914 2913 2913 2913 2912 2912 2912 2912 2911 2911 2910 2909 2909 2909 2910 2911 2911 2911 2910 2909 2909 2909 2908 2908 2908 2908 2908 2907 2907 2907 2907 2907 2907 2907
2937 2936 2936 2935 2934 2933 2933 2932 2931 2930 2929 2928 2927 2926 2925 2924 2922 2922 2922 2922 2922 2922 2921 2920 2918 2917 2917 2916 2915 2915 2914 2914 2914 2913 2912 2912 2911 2911 2910 2910 2910 2909 2909 2908 2908 2907 2907 2907 2907 2907 2908 2909 2908 2908 2907 2907 2907 2906 2906 2906 2906 2906 2905 2905 2905 2905 2904 2904 2904
2934 2933 2933 2932 2932 2931 2930 2929 2928 2927 2927 2926 2925 2924 2923 2922 2921 2920 2920 2920 2920 2919 2919 2918 2917 2915 2914 2913 2913 2912 2912 2911 2911 2911 2910 2910 2909 2908 2908 2907 2907 2907 2906 2906 2906 2905 2905 2904 2904 2905 2906 2907 2906 2906 2905 2904 2904 2904 2904 2904 2904 2903 2903 2903 2902 2902 2902 2902 2902
2931 2931 2930 2930 2929 2928 2927 2927 2926 2925 2924 2923 2923 2922 2921 2919 2919 2918 2917 2917 2917 2917 2916 2916 2914 2913 2912 2912 2911 2910 2909 2909 2908 2908 2908 2907 2907 2906 2906 2905 2905 2904 2904 2903 2903 2903 2902 2902 2902 2902 2903 2904 2904 2903 2903 2902 2902 2902 2902 2902 2902 2901 2901 2900 2900 2900 2899 2899 2899
2929 2928 2928 2927 2927 2926 2925 2924 2923 2922 2922 2921 2921 2920 2919 2917 2917 2916 2915 2915 2914 2914 2913 2913 2912 2911 2910 2909 2909 2908 2907 2907 2906 2906 2905 2905 2904 2904 2903 2903 2902 2902 2902 2901 2901 2901 2900 2900 2900 2900 2901 2901 2902 2901 2901 2900 2900 2900 2900 2900 2899 2899 2899 2898 2898 2897 2897 2897 2897
2927 2926 2926 2925 2924 2924 2923 2922 2921 2920 2919 2919 2918 2918 2917 2916 2915 2914 2913 2912 2912 2911 2911 2910 2909 2908 2907 2907 2906 2906 2905 2904 2904 2903 2902 2902 2902 2902 2901 2901 2900 2899 2899 2899 2899 2898 2898 2898 2898 2898 2898 2898 2898 2898 2898 2898 2897 2897 2897 2897 2897 2897 2897 2896 2896 2895 2895 2894 2894